Weather in Isfara

Tajikistan     40°07′32″N   70°37′27″E
temp.,
°C
wind,
m/s
gust,
m/s
humid.,
%
clouds,
%
prec.,
mm/h
press.,
hPa
HPBL,
m
21 april, wed
wed2123:00+16w225780 1.4 101196
02:00+14wsw61267100 0.4 10121028
05:00+14wsw9156879 1.9 10121336
08:00+12wsw10148095 3.1 10151138
11:00+12wsw11156497 3.7 1017999
14:00+13wsw12165687 0.0 10161222
17:00+13wsw1216562 0.0 10171198
20:00+12wsw9145925 0.0 1019676
22 april, thu
thu2223:00+11wsw712584 0.0 1019407
02:00+10wsw611681 0.0 1021314
05:00+9w36740 0.0 1023115
08:00+11wnw33521 0.0 1024538
11:00+14n21411 0.0 10251077
14:00+17nne21311 0.0 10241579
17:00+19nne11220 0.0 10231540
20:00+17nnw11290 0.0 102412
23 april, fri
fri2323:00+15se01340 0.0 102310
02:00+13wsw01390 0.0 102310
05:00+12ene11440 0.0 102312
08:00+15ene23350 0.0 1024345
11:00+19ne44254 0.0 10231370
14:00+21ne321949 0.0 10211835
17:00+22ne211669 0.0 10191589
20:00+19ene33214 0.0 102028
24 april, sat
sat2423:00+17ese22260 0.0 101911
02:00+15ese11310 0.0 101811
05:00+13ene113799 0.0 101913
08:00+17ne332779 0.0 1020302
11:00+20ene3322100 0.0 10191001
14:00+23nne1117100 0.0 10171396
17:00+23wnw3415100 0.0 10171015
20:00+21sw2222100 0.0 101819
25 april, sun
sun2523:00+18ssw112899 0.0 101913
02:00+17ssw013071 0.0 101811
05:00+15e22315 0.0 101911
08:00+19ene222387 0.0 1020255
11:00+23ne3320100 0.0 1020986
14:00+26nne2116100 0.0 10171561
17:00+27wnw12150 0.0 10161293
20:00+23wsw222136 0.0 101716